Regional Weather Roundup
Issued by NWS

Home | Current Version | Previous Version | Graphics & Text | Print | Product List | Glossary On
Versions: 1 2 3 4 5 6 7 8 9 10 11 12 13 14 15 16 17 18 19 20 21 22 23 24 25 26 27 28 29 30 31 32 33 34 35 36 37 38 39 40 41 42 43 44 45 46 47 48 49 50
000
ASUS43 KMKX 261611
RWRWI

WISCONSIN REGIONAL WEATHER ROUNDUP
NATIONAL WEATHER SERVICE MILWAUKEE/SULLIVAN WI
1100 AM CDT FRI AUG 26 2016

NOTE: "FAIR" INDICATES FEW OR NO CLOUDS BELOW 12,000 FEET WITH NO
SIGNIFICANT WEATHER AND/OR OBSTRUCTIONS TO VISIBILITY.

WIZ001-002-006>008-014>016-023>028-261700-
NORTHWEST WISCONSIN

CITY           SKY/WX    TMP DP  RH WIND       PRES   REMARKS
SUPERIOR ARPT  SUNNY     68  53  59 CALM      30.16F
ASHLAND        SUNNY     68  52  56 VRB6      30.17S
HAYWARD        SUNNY     66  52  60 CALM      30.18F
SIREN          SUNNY     67  50  53 CALM      30.18S
CUMBERLAND     SUNNY     64  48  55 NW3       30.20R
RICE LAKE      SUNNY     66  52  59 CALM      30.21S
CHETEK         NOT AVBL
LADYSMITH      MOSUNNY   66  53  61 W5        30.20S
EAU CLAIRE     CLOUDY    69  52  54 NW5       30.19S
MENOMONIE      SUNNY     68  54  61 SW5       30.20S
NEW RICHMOND   SUNNY     68  55  62 CALM      30.20S
OSCEOLA        SUNNY     67  55  64 CALM      30.21S
$$

WIZ003>005-009-010-017-018-261700-
NORTH CENTRAL WISCONSIN

CITY           SKY/WX    TMP DP  RH WIND       PRES   REMARKS
MANITOWISH WTR NOT AVBL
ARBOR VITAE    MOSUNNY   63  53  70 W5        30.17F
WOODRUFF       MOSUNNY   63  53  70 W5        30.17F
RHINELANDER    MOSUNNY   64  55  72 NW5       30.18F
EAGLE RIVER    MOSUNNY   65  52  63 NW8       30.16F
LAND O LAKES   PTSUNNY   64  52  64 NW6       30.17S
PHILLIPS       MOSUNNY   63  52  68 CALM      30.18S
TOMAHAWK       SUNNY     65  52  63 NW8       30.18F
MEDFORD        PTSUNNY   64  53  68 N5        30.20S
MERRILL        MOSUNNY   66  54  64 NW5       30.19S
$$

WIZ029-030-035-036-043>047-261700-
CENTRAL WISCONSIN

CITY           SKY/WX    TMP DP  RH WIND       PRES   REMARKS
WAUSAU         SUNNY     66  54  65 NW7       30.17S
MOSINEE        MOSUNNY   66  55  68 NW6       30.20S
MARSHFIELD     SUNNY     68  54  60 NW7       30.19S
STEVENS POINT  MOSUNNY   66  52  60 CALM      30.19F
WAUPACA        CLOUDY    71  56  58 W5        30.18F
WAUTOMA        PTSUNNY   68  57  68 VRB3      30.19F
WISC RAPIDS    MOSUNNY   68  56  65 W6        30.20F
CAMP DOUGLAS   PTSUNNY   66  59  77 W3        30.20S
$$

WIZ011>013-019>022-031-037>040-048>050-261700-
NORTHEAST WISCONSIN

CITY           SKY/WX    TMP DP  RH WIND       PRES   REMARKS
ANTIGO         MOSUNNY   65  54  66 NW9       30.18S
SHAWANO        SUNNY     70  55  58 W8        30.16F
OCONTO         NOT AVBL
STURGEON BAY   SUNNY     67  56  67 NW8       30.16S
GREEN BAY      MOSUNNY   69  59  70 W7        30.16F
MANITOWOC      MOSUNNY   70  56  61 W8        30.17F
APPLETON       PTSUNNY   66  54  63 W7        30.17S
CLINTONVILLE   MOSUNNY   68  54  60 W8        30.17S
OSHKOSH        CLOUDY    68  56  65 W9        30.17F
$$

WIZ032>034-041-042-053>061-261700-
SOUTHWEST WISCONSIN

CITY           SKY/WX    TMP DP  RH WIND       PRES   REMARKS
LA CROSSE      CLOUDY    69  58  67 CALM      30.19F
SPARTA         PTSUNNY   65  58  75 CALM      30.20S
VIROQUA        CLOUDY    65  57  76 CALM      30.21F
BOSCOBEL       CLOUDY    71  62  73 NW3       30.19F
PRAIRIE DU CHI CLOUDY    68  58  72 NW3       30.18F
PLATTEVILLE    CLOUDY    69  61  76 CALM      30.20S
$$

WIZ056-057-062-063-064-067-068-261700-
SOUTH CENTRAL WISCONSIN

CITY           SKY/WX    TMP DP  RH WIND       PRES   REMARKS
REEDSBURG      NOT AVBL
BARABOO/DELLS  PTSUNNY   67  56  67 W6        30.20S
LONE ROCK      CLOUDY    69  59  70 CALM      30.20S
MINERAL POINT  CLOUDY    70  57  64 CALM      30.20F
MADISON        CLOUDY    69  58  67 NW3       30.19S
MIDDLETON      CLOUDY    70  60  70 CALM      30.20S
WATERTOWN      PTSUNNY   69  58  66 N5        30.19F
MONROE         CLOUDY    70  54  56 N5        30.19F
JANESVILLE     PTSUNNY   72  57  60 NE3       30.18F
$$

WIZ051-052-058>065-066-070>072-261700-
SOUTHEAST WISCONSIN

CITY           SKY/WX    TMP DP  RH WIND       PRES   REMARKS
MILWAUKEE      PTSUNNY   74  53  48 VRB6      30.18S
WAUKESHA       SUNNY     70  55  60 N3        30.20F
MILWAUKEE/TIMM SUNNY     72  52  49 W5        30.20S
RACINE         SUNNY     75  56  51 VRB3      30.20S
BURLINGTON     MOSUNNY   71  55  56 NW3       30.19S
KENOSHA        CLOUDY    75  60  59 N3        30.19F
FOND DU LAC    CLOUDY    70  57  63 W7        30.18F
SHEBOYGAN      MOSUNNY   71  57  61 NW8       30.17S
WEST BEND      MOSUNNY   70  55  60 NW8       30.18F
JUNEAU         CLOUDY    67  57  72 CALM      30.21S
$$

LSZ147-162-261700-
LAKE SUPERIOR

STATION/POSITION TIME  TEMP    WIND        PRES    WAVE
                       AIR SEA DIR/SP/G            HT/PER
                 (UTC) (F)     (DEG/KT/KT) (MB)    (FT/S)
W MID LAKE BUOY  1550   60 67  330/  8/ 10 1020.8R   2/ 3
DEVILS ISLAND    1600   62     240/  3/  5 1021.7R
PORT WING        1500   64     280/  3/  5 1021.7R
SAXON HARBOR     1500   64     320/ 11/ 13 1021.7
$$

LMZ867-665-643>646-261700-
LAKE MICHIGAN

STATION/POSITION TIME  TEMP    WIND        PRES    WAVE
                       AIR SEA DIR/SP/G            HT/PER
                 (UTC) (F)     (DEG/KT/KT) (MB)    (FT/S)
CHAMBERS ISLAND  1500   67     250/  5/  8 1020.7R
S GREEN BAY BUOY 1500   65 72  260/  6/  8 1020.7R
N MID LAKE BUOY  1550   65 71  260/ 10/ 12 1019.8R   1/ 3
NORTHPORT PIER   1500   67     310/  4/  9 1020.3R
SISTER BAY       1507   69     330/  8/  9   N/A
KEWAUNEE LAKESHO 1500   67     290/  5/  8 1020.8R
SHEBOYGAN LAKESH 1600   68     310/  6/  8 1021.1F
PORT WASHINGTON  1500   72     300/  5/  8 1022.7R
ATWATER BUOY     1500   62 49   30/  6/  6   N/A
MILWAUKEE LAKESH 1510   66      30/  2/  4   N/A
S MID LAKE BUOY  1550   70 75  350/  6/  8 1021.7R   1/ 4
KENOSHA   LAKESH 1600   69      90/  5/  6 1021.7F
$$

TC  - TEMPERATURE IN CELSIUS
VSB - VISIBILITY IN STATUTE MILES
WCI - WIND CHILL INDEX
HX  - HEAT INDEX




USA.gov is the U.S. government's official web portal to all federal, state and local government web resources and services.